[[{"header":{"parameterUnit":"m.s-1","parameterCategory":1,"la1":30.2991,"la2":30.254,"lo1":-89.0895,"lo2":-89.0444,"dy":0.0017,"dx":0.0017,"nx":28,"ny":28,"refTime":"2024-03-10T21:00:00:Z","depth":0,"parameterNumber":2,"parameterNumberName":"U-component_of_WINDS"},"data":[0,0,0,0,0,0,0,0,0,0,0,0,0,0,0,0,0,0,0,0,0,0,0,0,0,0,0,0,0,0,0,0,0,0,0,0,0,0,0,0,0,0,0,0,0,0,0,0,0,0,0,0,0,0,0,0,0,0,-3.4391,-3.4392,0,-3.4511,-3.4512,-3.4513,-3.441,-3.4405,-3.4401,-3.4397,-3.4521,-3.4528,-3.4535,0,0,0,0,0,0,0,0,0,0,0,0,0,-3.4073,-3.4079,-3.4391,-3.4392,-3.4394,-3.451,-3.4512,-3.4514,-3.441,-3.4405,-3.44,-3.4395,-3.4518,-3.4527,-3.4536,0,0,0,0,0,0,0,0,0,0,0,0,0,-3.4204,-3.4081,-3.4391,-3.4356,-3.4354,-3.451,-3.4512,-3.4514,-3.4411,-3.4405,-3.4399,-3.4393,-3.4515,-3.4526,-3.4537,-3.4733,0,0,-3.457,-3.4575,0,0,0,0,0,0,0,0,-3.4196,-3.4215,-3.436,-3.4359,-3.4357,-3.4439,-3.4445,-3.4588,-3.4413,-3.439,-3.4397,-3.4389,-3.4499,-3.4511,-3.4547,-3.4739,-3.4744,-3.4571,-3.4578,-3.4583,-3.4586,0,0,0,0,0,0,0,-3.4187,-3.421,-3.4438,-3.4362,-3.436,-3.4335,-3.4346,-3.4472,-3.4479,-3.4391,-3.4384,-3.44,-3.4497,-3.4537,-3.4549,-3.4746,-3.4571,-3.4581,-3.4587,-3.4592,-3.5104,-3.5111,0,0,0,0,0,0,-3.4182,-3.4203,-3.4434,-3.4442,-3.4259,-3.4346,-3.4359,-3.4419,-3.4477,-3.448,-3.4405,-3.4394,-3.4521,-3.4537,-3.4553,-3.4787,-3.4583,-3.4593,-3.4599,-3.5097,-3.5106,-3.5113,0,0,0,0,0,0,-3.4175,-3.4203,-3.443,-3.432,-3.4347,-3.4358,-3.4427,-3.4425,-3.4465,-3.4488,-3.4488,-3.4445,-3.4517,-3.4538,-3.4689,-3.479,-3.4598,-3.4608,-3.5089,-3.51,-3.5109,-3.5257,0,0,0,0,0,0,-3.4167,-3.4202,-3.4277,-3.4323,-3.4353,-3.4564,-3.4433,-3.4432,-3.4484,-3.4471,-3.4525,-3.4528,-3.4514,-3.4673,-3.47,-3.4802,-3.4616,-3.508,-3.5094,-3.5106,-3.5243,-3.5271,-3.5295,0,0,0,0,0,-3.4156,-3.4313,-3.4281,-3.4309,-3.4447,-3.457,-3.4587,-3.4567,-3.4492,-3.4568,-3.4582,-3.4526,-3.4774,-3.469,-3.4719,-3.4825,-3.5073,-3.509,-3.5105,-3.5231,-3.5265,-3.5294,0,0,0,0,0,0,-3.4279,-3.4319,-3.4283,-3.4461,-3.4513,-3.4552,-3.4647,-3.4604,-3.4679,-3.4664,-3.4636,-3.4649,-3.4809,-3.4831,-3.4736,-3.5018,-3.4912,-3.4934,-3.4998,-3.503,-3.5056,-3.5048,-3.4625,0,0,0,0,0,-3.4327,-3.4423,-3.4453,-3.4606,-3.4634,-3.4636,-3.4689,-3.4669,-3.4722,-3.4743,-3.4769,-3.4822,-3.4912,-3.4972,-3.5056,-3.5245,-3.5255,-3.5332,-3.5358,-3.5379,-3.54,-3.5502,-3.5536,-3.5165,-3.5165,-3.5165,0,0,-3.4427,-3.4461,-3.4523,-3.4632,-3.467,-3.4771,-3.4656,-3.4767,-3.4841,-3.476,-3.4905,-3.4925,-3.4983,-3.5154,-3.523,-3.5178,-3.5504,-3.54,-3.5417,-3.5425,-3.5522,-3.5557,-3.5588,-3.5176,-3.5174,-3.5172,0,0,-3.4661,-3.4696,-3.4828,-3.4868,-3.4927,-3.4927,-3.4959,-3.5004,-3.5015,-3.5159,-3.51,-3.5188,-3.5343,-3.5387,-3.543,-3.5679,-3.5631,-3.5707,-3.5844,-3.5943,-3.5973,-3.5998,-3.6088,-3.6121,-3.5727,-3.5727,-3.5727,0,-3.4779,-3.4928,-3.4901,-3.5017,-3.5067,-3.4997,-3.5131,-3.5171,-3.5254,-3.529,-3.523,-3.5423,-3.5457,-3.5637,-3.5698,-3.5734,-3.577,-3.5702,-3.597,-3.5996,-3.602,-3.6105,-3.6139,-3.5736,-3.5735,-3.5734,-3.5733,0,-3.507,-3.5174,-3.5273,-3.5355,-3.5416,-3.554,-3.5532,-3.5597,-3.5571,-3.5577,-3.5725,-3.5763,-3.5853,-3.5894,-3.587,-3.6071,-3.6037,-3.5974,-3.5867,-3.6065,-3.6144,-3.6177,-3.5749,-3.5746,-3.5743,-3.5741,0,0,-3.5387,-3.5452,-3.5489,-3.5525,-3.5584,-3.5664,-3.5785,-3.5873,-3.5929,-3.5988,-3.6089,-3.6221,-3.6163,-3.6212,-3.6191,-3.6279,-3.6475,-3.6205,-3.6206,-3.6255,-3.6699,-3.6748,-3.6786,-3.6442,-3.6448,-3.6453,-3.6695,0,-3.5625,-3.5835,-3.5814,-3.6014,-3.611,-3.6044,-3.6149,-3.6196,-3.6205,-3.6288,-3.6297,-3.6392,-3.6307,-3.6336,-3.6419,-3.6433,-3.6564,-3.6415,-3.6536,-3.6541,-3.6526,-3.6827,-3.6879,-3.7106,-3.6726,-3.6731,-3.6735,0,-3.593,-3.6,-3.621,-3.6253,-3.6293,-3.6388,-3.6466,-3.6546,-3.6598,-3.6598,-3.6652,-3.6616,-3.6737,-3.6626,-3.6793,-3.6693,-3.674,-3.6754,-3.6763,-3.6775,-3.6651,-3.6849,-3.7177,-3.7212,-3.6783,-3.678,-3.6776,0,-3.6143,-3.6289,-3.6433,-3.6466,-3.652,-3.6588,-3.6614,-3.666,-3.6714,-3.6782,-3.6817,-3.6899,-3.6944,-3.7008,-3.6996,-3.6916,-3.7166,-3.7054,-3.717,-3.7171,-3.7228,-3.7225,-3.757,-3.7256,-3.7256,-3.7255,-3.7254,0,-3.6411,-3.6542,-3.6529,-3.6618,-3.6762,-3.6737,-3.688,-3.6898,-3.6939,-3.703,-3.6977,-3.7064,-3.7041,-3.7127,-3.7117,-3.7257,-3.7278,-3.7282,-3.7278,-3.7288,-3.7287,-3.732,-3.7304,-3.7264,-3.7262,-3.726,-3.7259,0,-3.6674,-3.667,-3.6823,-3.6861,-3.6874,-3.6979,-3.7012,-3.7096,-3.7099,-3.7215,-3.7241,-3.7247,-3.7345,-3.7338,-3.7449,-3.7442,-3.7615,-3.7592,-3.7598,-3.7594,-3.7711,-3.7701,-3.8091,-3.8141,-3.7793,-3.7797,-3.7799,0,-3.6846,-3.6946,-3.6994,-3.7051,-3.7082,-3.7174,-3.7229,-3.7207,-3.7266,-3.7332,-3.7408,-3.7501,-3.7575,-3.7734,-3.7749,-3.7833,-3.7812,-3.7943,-3.7825,-3.7831,-3.7816,-3.7811,-3.782,-3.7967,-3.7971,-3.7974,-3.7977,0,-3.7153,-3.7146,-3.7227,-3.7308,-3.7374,-3.7436,-3.7493,-3.7543,-3.7526,-3.7595,-3.7695,-3.7752,-3.7864,-3.7957,-3.8037,-3.8063,-3.8019,-3.8013,-3.8045,-3.8057,-3.8057,-3.8059,-3.7663,-3.8005,-3.8002,-3.8,-3.7999,-3.7997,-3.7377,-3.7462,-3.751,-3.7601,-3.7641,-3.7695,-3.7776,-3.7789,-3.7872,-3.7962,-3.7943,-3.8055,-3.8103,-3.8206,-3.824,-3.8327,-3.828,-3.8326,-3.8337,-3.8349,-3.8363,-3.8041,-3.8341,-3.834,-3.834,-3.8339,-3.8338,0,-3.7682,-3.7709,-3.7793,-3.7874,-3.7946,-3.7896,-3.7956,-3.802,-3.8119,-3.8168,-3.8241,-3.8355,-3.8445,-3.8466,-3.8552,-3.8617,-3.8599,-3.8641,-3.8637,-3.8643,-3.84,-3.8365,-3.8654,-3.8654,-3.8654,-3.8654,-3.8654,-3.8654,-3.7849,-3.7991,-3.7989,-3.815,-3.8175,-3.8285,-3.8323,-3.8373,-3.8412,-3.8542,-3.8616,-3.8628,-3.8666,-3.8754,-3.8834,-3.8838,-3.8873,-3.8924,-3.8919,-3.8692,-3.8661,-3.863,-3.8597,-3.8931,-3.8931,-3.9156,-3.9158,-3.9159]},{"header":{"parameterUnit":"m.s-1","parameterCategory":1,"la1":30.2991,"la2":30.254,"lo1":-89.0895,"lo2":-89.0444,"dy":0.0017,"dx":0.0017,"nx":28,"ny":28,"refTime":"2024-03-10T21:00:00:Z","depth":0,"parameterNumber":3,"parameterNumberName":"V-component_of_WINDS"},"data":[0,0,0,0,0,0,0,0,0,0,0,0,0,0,0,0,0,0,0,0,0,0,0,0,0,0,0,0,0,0,0,0,0,0,0,0,0,0,0,0,0,0,0,0,0,0,0,0,0,0,0,0,0,0,0,0,0,0,-3.2946,-3.2947,0,-3.3035,-3.3036,-3.3037,-3.2996,-3.2993,-3.2991,-3.2989,-3.3081,-3.3085,-3.309,0,0,0,0,0,0,0,0,0,0,0,0,0,-3.2741,-3.2745,-3.2946,-3.2947,-3.2949,-3.3035,-3.3036,-3.3037,-3.2996,-3.2993,-3.2991,-3.2988,-3.308,-3.3085,-3.309,0,0,0,0,0,0,0,0,0,0,0,0,0,-3.283,-3.2746,-3.2946,-3.2938,-3.2939,-3.3035,-3.3036,-3.3038,-3.2997,-3.2993,-3.299,-3.2987,-3.3078,-3.3084,-3.3091,-3.32,0,0,-3.3112,-3.3115,0,0,0,0,0,0,0,0,-3.2825,-3.2838,-3.2938,-3.2939,-3.2939,-3.3001,-3.2997,-3.3092,-3.2998,-3.2975,-3.2989,-3.2985,-3.3057,-3.3065,-3.3089,-3.3205,-3.3208,-3.3112,-3.3117,-3.3119,-3.3121,0,0,0,0,0,0,0,-3.2819,-3.2834,-3.2981,-3.294,-3.2941,-3.293,-3.2939,-3.3015,-3.3034,-3.2976,-3.2974,-3.2985,-3.3057,-3.3083,-3.3091,-3.321,-3.3112,-3.3118,-3.3122,-3.3125,-3.3418,-3.3421,0,0,0,0,0,0,-3.2813,-3.2829,-3.2979,-3.2984,-3.2873,-3.2937,-3.2947,-3.2985,-3.3033,-3.3037,-3.2987,-3.2982,-3.3073,-3.3083,-3.3094,-3.3225,-3.3119,-3.3126,-3.313,-3.3414,-3.3419,-3.3423,0,0,0,0,0,0,-3.2809,-3.2827,-3.2975,-3.2906,-3.2924,-3.2944,-3.2987,-3.2988,-3.3014,-3.3041,-3.3044,-3.3011,-3.3071,-3.3085,-3.3174,-3.3227,-3.3129,-3.3135,-3.341,-3.3415,-3.3421,-3.3487,0,0,0,0,0,0,-3.2803,-3.2826,-3.2867,-3.2907,-3.2928,-3.3053,-3.299,-3.2992,-3.3026,-3.302,-3.3064,-3.3068,-3.3069,-3.3164,-3.3181,-3.3235,-3.314,-3.3405,-3.3412,-3.3419,-3.348,-3.3494,-3.3506,0,0,0,0,0,-3.2796,-3.2883,-3.287,-3.2888,-3.298,-3.3057,-3.3068,-3.3068,-3.303,-3.3073,-3.3089,-3.3066,-3.3219,-3.3173,-3.3192,-3.3249,-3.3402,-3.341,-3.3418,-3.3474,-3.3491,-3.3506,0,0,0,0,0,0,-3.285,-3.2888,-3.2874,-3.2976,-3.3013,-3.3049,-3.3103,-3.3086,-3.3135,-3.3128,-3.3125,-3.3135,-3.3228,-3.3247,-3.3196,-3.3357,-3.3304,-3.3317,-3.3341,-3.3357,-3.337,-3.3363,-3.3146,0,0,0,0,0,-3.2874,-3.2932,-3.2962,-3.305,-3.3069,-3.3083,-3.3116,-3.3112,-3.3151,-3.3166,-3.319,-3.3228,-3.3284,-3.3322,-3.3375,-3.3482,-3.3491,-3.3531,-3.3544,-3.3554,-3.3565,-3.3623,-3.364,-3.345,-3.345,-3.345,0,0,-3.2924,-3.2952,-3.2989,-3.3062,-3.309,-3.315,-3.3096,-3.3163,-3.3208,-3.3177,-3.3262,-3.328,-3.3323,-3.3421,-3.3466,-3.3441,-3.3619,-3.3565,-3.3573,-3.3578,-3.3633,-3.3651,-3.3667,-3.3456,-3.3454,-3.3454,0,0,-3.3046,-3.3073,-3.3148,-3.3177,-3.3221,-3.3229,-3.3247,-3.3285,-3.3296,-3.3382,-3.3359,-3.3412,-3.351,-3.354,-3.3569,-3.3701,-3.3681,-3.3718,-3.3787,-3.3843,-3.3858,-3.3871,-3.3918,-3.3935,-3.3729,-3.3729,-3.3729,0,-3.3102,-3.3193,-3.3189,-3.3258,-3.329,-3.3263,-3.3339,-3.3368,-3.3427,-3.345,-3.342,-3.3541,-3.3568,-3.3673,-3.3705,-3.3729,-3.3749,-3.3714,-3.3856,-3.3869,-3.3881,-3.3926,-3.3944,-3.3733,-3.3733,-3.3733,-3.3732,0,-3.326,-3.3323,-3.3379,-3.3435,-3.3474,-3.3546,-3.3553,-3.3592,-3.3585,-3.3596,-3.3683,-3.3714,-3.3773,-3.3797,-3.3791,-3.3901,-3.3884,-3.3855,-3.3803,-3.3904,-3.3946,-3.3963,-3.374,-3.3738,-3.3737,-3.3736,0,0,-3.342,-3.3472,-3.3493,-3.3518,-3.3563,-3.3611,-3.3682,-3.3738,-3.3772,-3.3813,-3.3872,-3.3954,-3.3927,-3.3959,-3.3956,-3.4005,-3.4107,-3.397,-3.3971,-3.3995,-3.423,-3.4252,-3.4272,-3.4094,-3.4097,-3.41,-3.4226,0,-3.3545,-3.3668,-3.3666,-3.378,-3.3838,-3.3812,-3.3873,-3.3908,-3.392,-3.397,-3.3983,-3.4042,-3.4002,-3.4021,-3.4069,-3.4085,-3.4155,-3.4076,-3.4149,-3.4152,-3.4139,-3.4293,-3.4317,-3.4435,-3.4243,-3.4246,-3.4248,0,-3.3708,-3.3753,-3.3872,-3.3908,-3.3932,-3.3987,-3.4038,-3.4087,-3.4125,-3.413,-3.4165,-3.4154,-3.4225,-3.417,-3.4268,-3.4214,-3.4244,-3.4256,-3.4261,-3.4268,-3.4206,-3.4305,-3.4472,-3.449,-3.4273,-3.4271,-3.427,0,-3.3812,-3.3903,-3.3986,-3.4008,-3.4051,-3.409,-3.411,-3.4145,-3.4179,-3.4224,-3.4245,-3.4298,-3.4327,-3.4368,-3.4371,-3.4331,-3.447,-3.4415,-3.4476,-3.4476,-3.4507,-3.4505,-3.4682,-3.4526,-3.4526,-3.4525,-3.4525,0,-3.3952,-3.4026,-3.4033,-3.4084,-3.4166,-3.4163,-3.4244,-3.4261,-3.4291,-3.4345,-3.4326,-3.4377,-3.4378,-3.443,-3.4433,-3.4513,-3.4526,-3.4532,-3.4532,-3.4534,-3.4533,-3.4554,-3.4546,-3.453,-3.4529,-3.4528,-3.4527,0,-3.4083,-3.4091,-3.4179,-3.4213,-3.4223,-3.4282,-3.431,-3.4358,-3.4368,-3.4436,-3.4452,-3.4467,-3.4527,-3.4534,-3.4604,-3.4606,-3.4702,-3.4694,-3.469,-3.4688,-3.4749,-3.4743,-3.4945,-3.4972,-3.4798,-3.48,-3.4801,0,-3.4172,-3.4228,-3.4267,-3.4301,-3.4323,-3.4379,-3.4413,-3.4412,-3.4448,-3.4495,-3.4537,-3.4595,-3.4641,-3.4738,-3.4756,-3.4809,-3.4801,-3.4868,-3.4809,-3.4809,-3.4802,-3.4799,-3.4804,-3.488,-3.4882,-3.4883,-3.4885,0,-3.4329,-3.433,-3.438,-3.4431,-3.4472,-3.4512,-3.455,-3.4579,-3.4582,-3.4624,-3.4684,-3.472,-3.4791,-3.4849,-3.4901,-3.4921,-3.4904,-3.4903,-3.492,-3.4923,-3.4918,-3.4921,-3.4721,-3.4899,-3.4897,-3.4896,-3.4895,-3.4895,-3.4442,-3.449,-3.4525,-3.4581,-3.4609,-3.4644,-3.4691,-3.4706,-3.4756,-3.4813,-3.4809,-3.4876,-3.4911,-3.4979,-3.5004,-3.5056,-3.5033,-3.5058,-3.5064,-3.5071,-3.5077,-3.4909,-3.5065,-3.5065,-3.5064,-3.5064,-3.5064,0,-3.4598,-3.4619,-3.467,-3.4723,-3.4767,-3.4745,-3.4785,-3.4824,-3.4882,-3.4916,-3.4962,-3.5031,-3.5086,-3.5108,-3.5162,-3.5199,-3.5193,-3.5214,-3.5211,-3.5216,-3.5093,-3.5073,-3.5218,-3.5218,-3.5218,-3.5218,-3.5218,-3.5218,-3.4685,-3.4765,-3.477,-3.4864,-3.4884,-3.4948,-3.4973,-3.5005,-3.5032,-3.511,-3.5156,-3.5169,-3.5198,-3.5254,-3.5303,-3.5308,-3.5329,-3.5354,-3.5355,-3.524,-3.5225,-3.521,-3.5191,-3.5358,-3.5358,-3.5473,-3.5474,-3.5475]}]]